Temp
6 6 6 6 6 6 6 6 6 6 6 6 6 6 6 6 6 6 6 6 6 6 6 6 6 6 6 6 6 6 6 6 6 6 6 5 5 5 5 5 4 4 5 5 5 5 5 5 4 4 4 4
6 6 6 6 6 6 6 6 6 6 6 6 6 6 6 6 6 6 6 6 6 6 6 6 6 6 6 6 6 6 6 6 6 5 5 5 5 4 4 4 4 4 4 4 4 4 4 4 4 4 4 4
6 6 6 6 6 6 6 6 6 6 6 6 6 6 6 6 6 6 6 6 6 6 6 6 6 6 5 5 6 6 5 5 5 5 5 5 4 4 4 4 4 4 4 4 4 4 4 4 4 4 4 4
6 6 6 6 6 6 6 6 6 6 6 6 6 6 6 6 6 6 6 6 6 6 6 6 5 5 5 5 5 5 5 5 5 5 4 4 4 4 4 4 4 4 4 4 4 4 4 4 4 4 4 3
6 6 6 6 6 6 6 6 6 6 5 6 6 6 6 6 6 6 6 6 5 5 5 5 5 5 5 5 5 4 4 4 4 4 4 4 4 4 4 4 3 3 4 4 3 3 4 4 3 3 3 3
6 6 6 6 6 6 5 5 5 5 5 6 6 6 6 6 6 6 6 6 6 5 5 5 5 5 5 5 4 4 4 4 4 4 4 4 4 4 4 3 3 3 3 3 3 3 3 3 3 3 3 3
6 6 6 6 5 5 5 5 5 5 5 6 6 6 6 5 6 6 6 6 5 5 5 5 5 5 5 4 4 3 3 3 3 3 4 4 3 3 3 3 3 3 3 3 3 3 3 3 3 3 3 3
5 5 5 5 5 5 5 5 5 5 6 5 6 6 5 5 6 6 5 5 5 5 5 5 5 4 4 4 3 3 3 3 3 3 3 3 3 3 3 3 3 2 2 2 2 2 2 2 2 2 2 2
5 5 5 5 5 5 5 5 5 5 6 5 5 5 5 5 5 5 5 5 5 5 5 5 5 4 4 4 4 3 3 3 3 3 3 3 3 3 2 2 2 2 2 2 2 2 2 2 2 2 2 2
5 5 5 5 5 5 5 5 5 5 6 5 5 5 5 5 5 5 5 5 5 5 5 5 4 4 4 4 4 4 3 3 2 2 2 2 2 2 2 2 2 2 2 2 2 2 2 2 2 2 2 2
4 4 5 5 5 5 5 5 5 5 5 5 5 5 5 5 5 4 4 4 4 4 4 4 4 4 4 4 4 3 3 2 2 2 2 2 2 2 2 2 1 1 1 1 1 1 1 1 1 1 1 1
4 3 4 4 5 5 5 5 5 5 5 5 5 5 5 4 4 4 4 4 4 4 4 4 4 4 4 3 3 3 3 3 3 2 2 2 2 2 1 1 1 1 1 1 1 1 1 1 1 1 1 1
3 2 3 4 5 5 5 5 5 5 5 5 5 5 5 4 4 4 4 4 4 4 3 3 3 3 4 3 3 3 3 3 3 3 2 2 2 1 1 1 1 1 1 1 1 1 1 1 1 1 1 1
2 2 2 3 4 5 5 5 5 5 5 5 5 4 4 4 4 4 4 4 4 3 3 3 3 3 3 3 3 3 3 3 2 2 2 2 1 1 1 1 1 0 0 0 0 0 0 0 0 0 0 0
2 2 2 3 4 4 5 5 5 5 5 5 5 4 4 4 4 4 3 3 3 3 3 3 3 3 3 3 3 3 3 2 2 2 1 1 1 1 1 1 1 1 1 0 0 0 1 1 0 0 0 0
2 2 2 3 4 4 4 5 5 5 4 4 4 4 4 3 3 3 3 3 3 3 3 3 3 3 3 3 3 3 2 2 2 2 1 1 1 1 1 1 1 1 1 1 1 1 1 1 1 0 0 0
2 2 2 3 4 4 4 4 4 4 4 4 4 4 3 3 3 3 3 3 3 3 3 3 2 2 2 2 2 2 2 2 2 2 1 1 1 1 1 1 1 1 1 1 1 1 1 1 1 0 0 0
2 2 3 4 4 4 4 4 4 4 4 4 3 3 3 3 3 3 2 2 2 2 2 2 2 2 2 2 2 2 2 2 1 1 1 1 1 1 1 1 1 1 1 1 1 1 1 1 0 0 -0 -0
2 2 3 3 4 3 3 3 4 4 4 3 3 3 3 3 3 2 2 2 2 2 2 2 2 1 1 1 1 1 1 1 1 1 1 1 1 1 1 0 0 0 0 0 0 0 0 0 0 0 0 -0
2 2 2 2 3 3 3 3 3 3 3 3 3 2 2 2 2 2 2 2 2 2 2 1 1 1 1 1 1 1 0 0 0 0 0 0 0 0 0 -0 -0 -0 -0 -0 -0 -0 -0 -0 -0 -0 -0 0
2 1 1 1 2 2 2 2 2 3 3 2 2 2 2 2 2 2 2 2 1 1 1 1 1 1 1 0 0 0 -0 -0 -0 -0 -0 -0 -0 -0 -0 -0 -1 -1 -1 -1 -1 -1 -1 -1 -1 -1 -1 -1
1 1 1 1 2 2 2 2 2 2 2 2 2 2 2 2 2 1 1 1 1 1 1 1 1 1 0 -0 -0 -0 -0 -0 -0 -0 -0 -1 -1 -1 -1 -1 -1 -1 -1 -1 -2 -2 -2 -2 -2 -2 -2 -2
1 1 1 1 1 2 2 2 2 2 2 1 1 1 1 1 1 1 1 1 0 1 1 1 0 0 0 -0 -1 -1 -1 -1 -1 -1 -1 -1 -1 -1 -1 -1 -2 -2 -2 -2 -2 -2 -2 -2 -2 -2 -2 -2
0 0 1 1 1 1 2 1 1 1 1 1 1 1 1 1 0 0 0 -0 -0 -0 0 0 -0 -0 -0 -1 -1 -1 -1 -1 -1 -1 -1 -1 -2 -2 -2 -2 -2 -2 -2 -2 -2 -2 -2 -2 -2 -2 -2 -2
0 0 1 1 1 1 1 1 1 1 1 1 1 1 0 0 -0 -0 -0 -1 -1 -1 -0 -0 -1 -1 -1 -1 -1 -1 -2 -2 -2 -2 -2 -2 -2 -2 -2 -2 -2 -2 -2 -2 -3 -3 -3 -3 -2 -3 -3 -3
0 0 1 1 1 1 0 0 0 0 -0 -0 -0 -0 -0 -1 -1 -1 -1 -1 -1 -1 -1 -1 -1 -1 -1 -2 -2 -2 -2 -2 -2 -2 -2 -2 -2 -2 -3 -3 -3 -3 -3 -3 -3 -3 -3 -3 -3 -3 -3 -3
-0 -0 0 0 0 -0 -0 -1 -1 -1 -1 -1 -1 -1 -1 -1 -1 -1 -1 -2 -2 -2 -2 -2 -2 -2 -2 -2 -2 -2 -2 -3 -3 -3 -3 -3 -3 -3 -3 -3 -3 -3 -3 -3 -3 -3 -3 -3 -3 -3 -3 -3
-1 -1 -1 -1 -1 -1 -1 -1 -1 -1 -2 -1 -1 -1 -1 -2 -2 -2 -2 -2 -2 -2 -2 -2 -2 -2 -2 -2 -2 -3 -3 -3 -3 -3 -3 -3 -3 -3 -3 -3 -3 -4 -4 -4 -4 -3 -3 -3 -3 -4 -4 -4
-1 -1 -1 -1 -1 -1 -1 -1 -2 -2 -2 -2 -2 -2 -2 -2 -2 -2 -3 -3 -3 -3 -3 -3 -3 -3 -3 -3 -3 -3 -3 -3 -3 -4 -4 -4 -4 -4 -4 -4 -4 -4 -4 -4 -4 -4 -4 -4 -4 -4 -5 -5
-2 -2 -2 -2 -2 -2 -2 -2 -2 -2 -2 -2 -3 -3 -3 -3 -3 -3 -3 -4 -4 -4 -4 -3 -3 -3 -3 -3 -3 -4 -4 -4 -4 -4 -4 -5 -5 -5 -4 -4 -4 -4 -4 -4 -4 -4 -4 -4 -5 -5 -5 -5
-2 -2 -2 -2 -3 -3 -3 -3 -3 -3 -3 -3 -3 -3 -3 -4 -4 -4 -4 -4 -4 -4 -4 -4 -4 -4 -4 -4 -4 -4 -5 -5 -5 -5 -5 -5 -5 -5 -5 -5 -5 -5 -5 -5 -5 -5 -5 -5 -5 -5 -6 -6
Height
3161 3161 3162 3164 3165 3166 3168 3169 3170 3170 3171 3173 3173 3173 3174 3175 3176 3176 3177 3177 3177 3178 3177 3177 3177 3177 3176 3177 3178 3178 3178 3178 3178 3178 3178 3179 3179 3179 3179 3179 3179 3178 3178 3178 3178 3178 3178 3177 3177 3178 3178 3178
3159 3160 3161 3162 3164 3165 3166 3167 3168 3169 3170 3171 3171 3172 3173 3174 3175 3175 3175 3176 3176 3176 3176 3176 3176 3175 3175 3175 3176 3176 3176 3176 3177 3177 3177 3177 3177 3177 3177 3177 3177 3177 3176 3177 3177 3177 3176 3176 3175 3176 3176 3177
3158 3159 3160 3161 3162 3163 3164 3165 3166 3167 3168 3169 3170 3171 3172 3172 3173 3174 3174 3174 3174 3174 3175 3174 3174 3174 3174 3173 3174 3174 3174 3174 3175 3175 3175 3175 3175 3175 3175 3175 3175 3175 3175 3176 3176 3175 3175 3174 3174 3174 3175 3175
3157 3158 3158 3159 3160 3161 3162 3163 3164 3165 3166 3167 3168 3169 3170 3170 3171 3172 3172 3173 3173 3173 3173 3172 3172 3172 3172 3172 3172 3172 3173 3172 3173 3173 3173 3173 3173 3173 3173 3173 3173 3173 3173 3174 3174 3173 3173 3173 3173 3173 3173 3173
3155 3156 3157 3157 3158 3159 3160 3161 3162 3162 3163 3164 3166 3166 3167 3168 3169 3169 3170 3171 3171 3170 3170 3170 3170 3170 3170 3170 3170 3170 3171 3170 3171 3171 3171 3171 3171 3171 3171 3171 3172 3171 3172 3172 3172 3171 3171 3171 3172 3172 3172 3171
3153 3154 3154 3155 3156 3157 3157 3158 3159 3160 3161 3162 3163 3164 3165 3165 3166 3167 3168 3168 3168 3168 3168 3168 3168 3168 3168 3168 3168 3168 3169 3169 3169 3169 3169 3169 3169 3169 3169 3170 3170 3170 3170 3170 3170 3169 3169 3169 3170 3170 3170 3169
3151 3151 3152 3153 3154 3154 3155 3156 3157 3158 3159 3160 3161 3161 3162 3163 3164 3165 3165 3166 3166 3166 3166 3166 3165 3165 3166 3166 3166 3166 3166 3167 3167 3167 3167 3167 3167 3167 3167 3167 3168 3168 3168 3168 3168 3167 3167 3167 3168 3168 3168 3168
3148 3149 3150 3151 3151 3152 3153 3154 3155 3156 3157 3158 3158 3159 3160 3161 3162 3163 3163 3164 3164 3164 3163 3163 3163 3163 3163 3163 3163 3163 3164 3165 3165 3165 3165 3165 3165 3165 3165 3166 3166 3166 3166 3166 3166 3165 3165 3165 3165 3166 3166 3166
3146 3147 3147 3148 3149 3150 3151 3152 3154 3155 3155 3156 3156 3157 3158 3159 3160 3161 3161 3161 3161 3161 3161 3161 3161 3161 3161 3161 3161 3161 3162 3162 3162 3162 3163 3163 3163 3163 3164 3164 3164 3164 3164 3164 3164 3164 3163 3163 3163 3163 3163 3163
3143 3144 3145 3145 3146 3147 3149 3151 3152 3153 3153 3154 3155 3155 3156 3157 3158 3159 3159 3158 3158 3158 3158 3159 3159 3159 3159 3159 3159 3159 3159 3159 3160 3160 3160 3161 3161 3161 3161 3161 3162 3162 3162 3161 3162 3161 3161 3161 3160 3160 3161 3161
3141 3141 3142 3142 3143 3144 3147 3149 3150 3151 3151 3152 3153 3154 3155 3156 3156 3156 3156 3156 3156 3156 3156 3157 3157 3157 3157 3157 3157 3157 3156 3156 3157 3157 3158 3158 3158 3158 3158 3159 3159 3159 3159 3159 3159 3159 3159 3158 3158 3157 3157 3158
3138 3138 3138 3139 3140 3142 3145 3147 3148 3149 3149 3150 3151 3152 3153 3153 3154 3154 3154 3154 3154 3154 3154 3154 3154 3154 3154 3154 3154 3154 3154 3154 3154 3154 3155 3155 3155 3155 3156 3156 3156 3156 3156 3156 3156 3155 3155 3155 3155 3154 3154 3154
3135 3136 3136 3137 3138 3140 3143 3144 3145 3146 3147 3148 3149 3150 3151 3151 3152 3152 3152 3152 3152 3152 3152 3152 3152 3152 3152 3152 3152 3152 3151 3151 3151 3151 3152 3152 3152 3152 3152 3152 3153 3153 3153 3153 3153 3152 3152 3152 3152 3152 3151 3151
3133 3134 3135 3136 3137 3139 3141 3142 3143 3144 3144 3146 3147 3148 3149 3149 3149 3150 3150 3149 3149 3149 3149 3149 3149 3149 3149 3149 3149 3149 3149 3148 3148 3148 3148 3149 3149 3149 3149 3149 3149 3149 3150 3150 3150 3150 3149 3149 3149 3149 3149 3148
3132 3133 3133 3134 3135 3137 3138 3139 3140 3141 3142 3144 3145 3146 3146 3147 3147 3147 3147 3147 3146 3146 3146 3146 3146 3146 3146 3146 3146 3146 3146 3146 3146 3146 3146 3146 3146 3146 3146 3146 3146 3146 3146 3147 3147 3146 3146 3146 3146 3146 3145 3145
3130 3131 3132 3132 3133 3134 3135 3136 3137 3138 3139 3141 3142 3143 3144 3144 3145 3145 3144 3144 3144 3143 3143 3143 3143 3143 3143 3143 3143 3143 3143 3143 3143 3143 3143 3143 3143 3143 3143 3143 3143 3143 3143 3144 3143 3143 3143 3143 3142 3142 3142 3142
3128 3129 3130 3130 3131 3132 3133 3134 3135 3136 3137 3138 3139 3140 3141 3142 3142 3142 3142 3142 3141 3141 3141 3140 3140 3140 3140 3140 3140 3140 3140 3140 3140 3140 3140 3140 3140 3140 3140 3141 3141 3141 3141 3141 3141 3140 3140 3140 3139 3139 3138 3138
3125 3126 3127 3128 3129 3130 3130 3131 3132 3133 3134 3135 3137 3137 3138 3138 3139 3139 3139 3139 3139 3138 3138 3137 3137 3137 3137 3137 3137 3137 3137 3137 3137 3137 3137 3137 3137 3138 3138 3138 3138 3138 3138 3138 3138 3137 3137 3137 3136 3135 3135 3134
3123 3124 3125 3126 3126 3128 3128 3129 3129 3130 3131 3133 3133 3134 3134 3135 3135 3136 3136 3136 3136 3135 3135 3134 3134 3134 3134 3134 3134 3134 3134 3134 3134 3135 3135 3135 3135 3135 3135 3134 3134 3134 3134 3134 3134 3133 3133 3133 3133 3132 3131 3130
3121 3122 3123 3124 3124 3125 3126 3126 3126 3127 3128 3130 3130 3130 3131 3131 3131 3132 3132 3133 3133 3132 3132 3131 3131 3131 3131 3131 3131 3131 3131 3131 3131 3131 3132 3132 3131 3131 3131 3131 3131 3130 3130 3130 3130 3129 3129 3129 3128 3128 3127 3126
3118 3120 3121 3121 3122 3123 3123 3123 3124 3124 3125 3126 3127 3127 3127 3127 3128 3128 3128 3129 3129 3129 3129 3129 3128 3128 3128 3128 3128 3128 3127 3127 3127 3128 3128 3128 3128 3128 3128 3127 3127 3127 3126 3126 3126 3125 3125 3124 3124 3123 3123 3122
3115 3116 3118 3119 3120 3120 3121 3121 3121 3121 3122 3122 3123 3123 3123 3124 3124 3124 3124 3125 3125 3125 3126 3126 3125 3125 3125 3125 3124 3124 3124 3123 3123 3124 3124 3124 3124 3124 3124 3123 3123 3123 3122 3122 3122 3121 3120 3119 3119 3118 3118 3118
3112 3113 3114 3115 3116 3117 3118 3118 3118 3118 3118 3119 3119 3119 3120 3120 3120 3121 3121 3121 3121 3121 3122 3122 3122 3122 3122 3122 3121 3120 3120 3120 3120 3120 3120 3120 3120 3120 3120 3120 3119 3119 3119 3118 3118 3117 3116 3115 3114 3114 3113 3113
3109 3109 3110 3111 3112 3113 3114 3114 3115 3115 3115 3115 3116 3116 3116 3117 3117 3117 3117 3117 3117 3118 3118 3119 3118 3118 3119 3118 3117 3117 3117 3116 3116 3116 3115 3116 3116 3116 3116 3116 3116 3115 3115 3114 3114 3113 3112 3111 3110 3109 3108 3108
3106 3107 3107 3108 3109 3109 3110 3111 3111 3111 3112 3112 3112 3112 3112 3112 3113 3113 3114 3114 3114 3114 3114 3115 3115 3115 3115 3114 3113 3113 3113 3113 3112 3112 3112 3111 3111 3111 3111 3111 3111 3111 3111 3110 3109 3109 3107 3106 3106 3105 3104 3103
3103 3103 3104 3104 3105 3105 3106 3106 3107 3107 3107 3107 3107 3107 3108 3108 3108 3109 3109 3110 3110 3110 3110 3110 3110 3111 3111 3110 3110 3109 3109 3109 3108 3108 3108 3108 3107 3107 3107 3107 3106 3106 3106 3105 3105 3105 3104 3102 3101 3100 3099 3099
3099 3100 3100 3100 3101 3101 3101 3101 3102 3102 3103 3103 3103 3103 3104 3104 3104 3104 3105 3105 3105 3105 3105 3105 3106 3106 3106 3106 3105 3105 3105 3104 3104 3104 3104 3103 3103 3103 3102 3102 3102 3101 3101 3100 3100 3100 3099 3099 3097 3095 3094 3094
3095 3096 3096 3096 3097 3097 3097 3097 3098 3098 3098 3099 3099 3099 3100 3100 3100 3100 3101 3101 3101 3101 3101 3101 3101 3101 3102 3101 3101 3101 3101 3100 3100 3099 3099 3099 3098 3098 3098 3097 3097 3097 3096 3096 3095 3095 3094 3094 3094 3092 3091 3089
3090 3091 3092 3092 3093 3093 3093 3094 3094 3094 3095 3095 3095 3096 3096 3096 3096 3097 3097 3097 3097 3097 3097 3097 3097 3097 3097 3097 3097 3096 3096 3096 3095 3095 3095 3094 3094 3093 3093 3092 3092 3092 3092 3091 3091 3090 3089 3089 3089 3088 3088 3087
3086 3087 3088 3089 3090 3090 3090 3090 3090 3091 3091 3091 3092 3092 3092 3092 3092 3092 3092 3092 3092 3092 3092 3092 3092 3092 3092 3092 3092 3092 3092 3091 3091 3091 3090 3090 3089 3088 3088 3087 3087 3086 3086 3086 3086 3085 3085 3084 3084 3084 3084 3084
3083 3084 3085 3086 3086 3086 3086 3086 3087 3087 3087 3087 3088 3088 3088 3088 3088 3088 3087 3087 3087 3088 3088 3088 3087 3087 3087 3087 3087 3087 3087 3087 3086 3086 3086 3085 3085 3084 3084 3083 3082 3081 3081 3081 3081 3081 3080 3080 3079 3079 3079 3080
Wind_Speed
19 21 21 22 22 22 21 20 19 19 19 18 19 20 20 19 18 17 18 18 17 18 18 18 19 19 20 20 19 19 19 18 18 18 17 16 16 15 15 15 16 16 16 16 15 15 15 16 15 14 13 13
21 21 22 22 23 23 22 21 20 20 20 20 19 19 18 18 17 18 18 19 19 19 19 20 20 19 19 20 19 19 19 19 18 17 16 16 16 15 15 15 16 16 16 16 15 15 15 16 15 15 14 13
22 22 23 23 24 23 23 22 21 21 20 19 19 18 17 17 17 18 19 20 20 20 20 20 20 19 19 19 19 19 18 18 18 17 16 16 16 16 16 16 16 17 17 16 15 15 16 16 16 15 15 14
23 23 24 24 24 24 23 22 21 20 20 19 18 18 18 19 20 21 21 21 21 20 20 21 21 21 20 20 19 18 17 17 17 16 16 16 16 16 16 16 16 17 17 16 16 17 17 17 16 15 15 15
24 25 25 25 25 24 24 22 21 21 20 20 20 21 22 23 23 23 22 22 21 20 19 20 20 21 20 19 19 17 16 16 16 15 15 16 16 16 16 16 16 17 17 17 17 18 19 18 17 16 16 16
26 26 26 25 25 25 24 22 22 22 22 22 23 24 24 24 23 23 23 22 21 19 17 17 17 18 18 17 17 16 15 15 15 15 15 15 16 16 16 16 16 17 17 18 18 19 20 20 18 17 16 17
27 27 27 27 26 25 25 24 24 23 23 24 25 25 24 22 23 24 24 22 20 17 16 16 16 16 16 15 15 15 14 14 15 15 15 16 16 16 16 17 17 17 18 19 19 20 21 20 19 18 17 17
28 28 28 27 27 27 27 26 26 26 26 26 26 25 23 22 23 24 23 20 18 16 16 16 15 15 15 14 14 15 14 14 14 15 16 16 17 17 17 17 18 18 19 20 20 21 21 21 20 19 18 18
29 28 28 28 28 29 28 27 26 26 25 23 22 22 22 22 22 22 20 18 16 15 15 15 15 15 15 15 15 16 15 14 15 15 16 16 17 17 18 18 19 19 20 21 21 21 22 22 22 21 20 19
29 29 29 30 29 29 28 26 26 25 23 22 22 22 22 22 21 20 18 16 15 15 14 14 14 15 15 15 16 16 15 15 15 16 16 16 16 17 18 19 19 20 21 21 22 22 22 23 23 23 22 22
29 30 31 31 31 31 28 26 25 24 24 24 24 23 22 21 19 17 16 15 14 15 15 15 15 16 16 16 16 16 16 16 16 16 16 17 17 18 19 19 20 21 22 22 23 23 24 24 25 25 25 24
30 30 31 32 32 31 29 26 25 25 25 25 24 22 21 19 18 16 15 15 15 15 16 16 17 17 18 17 17 17 18 18 19 19 19 19 19 19 20 21 22 23 23 24 25 25 26 26 27 27 27 27
30 29 31 33 32 31 29 28 27 27 26 25 23 22 20 18 18 17 17 17 16 16 17 18 18 19 20 20 19 19 20 20 21 21 21 20 20 21 22 23 24 25 25 26 27 27 28 28 29 29 29 29
30 32 33 32 32 31 30 29 28 27 27 25 22 21 20 19 19 18 18 18 18 18 18 19 20 21 22 22 22 22 22 22 22 22 22 22 22 23 24 25 26 27 27 28 28 29 30 31 31 31 31 30
32 34 33 32 33 32 31 30 28 27 27 25 23 21 21 20 19 18 18 19 19 20 21 21 21 22 23 24 24 24 23 23 23 23 23 24 24 25 26 27 28 28 29 30 30 31 32 32 32 33 33 32
33 33 32 33 34 32 30 30 29 28 27 25 24 22 21 19 19 19 19 20 21 22 23 22 22 23 24 24 25 25 25 24 24 24 25 26 26 27 28 28 29 29 30 31 32 32 33 33 33 34 34 34
34 34 33 35 35 32 31 31 29 28 27 26 25 23 21 20 20 21 21 21 22 23 24 24 23 23 24 24 25 26 26 25 25 25 26 26 27 27 28 28 29 30 31 32 32 33 33 33 33 34 35 35
35 35 36 36 35 32 32 31 30 29 28 27 26 24 24 23 23 22 22 22 23 23 24 24 24 24 24 24 25 26 26 26 25 25 26 27 27 28 28 29 29 30 31 32 32 33 33 33 33 34 35 36
37 37 37 38 36 33 32 33 31 30 28 28 27 26 26 26 25 24 24 24 23 23 24 24 24 24 24 24 24 25 25 25 26 26 26 27 28 28 29 29 29 30 30 31 32 32 32 32 33 34 34 36
40 39 39 40 38 35 34 34 33 31 29 29 28 28 28 28 26 25 26 25 24 24 25 25 25 24 24 24 24 25 25 26 26 26 26 27 27 28 28 29 30 30 31 31 31 32 32 33 33 34 35 35
42 41 41 41 40 38 37 35 33 32 31 31 30 30 30 29 27 27 28 28 27 26 26 26 25 25 25 24 24 25 26 27 27 27 27 28 28 29 29 30 31 31 31 32 32 33 34 34 34 35 35 36
42 42 42 42 40 39 39 37 34 33 33 32 32 32 32 31 29 29 29 30 29 28 27 26 26 26 26 25 25 27 27 28 28 29 29 29 29 30 30 31 31 32 32 33 34 34 35 36 36 36 36 36
43 44 44 44 41 39 38 37 35 35 34 34 34 34 33 32 31 31 31 31 30 29 29 28 27 27 26 26 27 28 28 29 30 30 30 31 31 31 32 32 32 33 33 34 35 36 36 37 38 38 37 37
46 47 46 44 42 39 38 37 36 35 35 35 35 36 35 34 34 34 33 32 31 31 31 29 28 27 26 27 29 29 29 30 30 31 32 32 32 33 33 33 34 34 35 36 36 37 37 38 38 38 38 38
47 47 44 42 40 39 38 37 37 36 36 36 37 37 37 36 37 37 35 33 32 32 32 31 30 28 28 29 30 30 30 30 31 32 33 33 34 34 35 35 36 36 37 37 37 37 38 38 39 38 38 38
46 44 41 40 40 40 39 38 38 38 37 37 37 38 38 39 39 39 37 34 33 33 33 33 31 30 30 31 31 31 31 32 32 33 34 35 36 36 37 37 37 38 38 39 39 38 38 38 39 39 38 37
43 42 41 40 40 40 40 39 38 38 38 38 39 39 40 40 40 39 38 36 35 34 34 33 33 32 32 32 32 32 33 33 34 35 36 36 37 38 38 39 39 39 39 39 39 39 38 37 37 37 37 37
42 41 41 40 40 40 40 39 38 38 38 39 40 40 41 41 40 40 39 38 37 36 36 35 34 34 34 33 34 34 35 35 36 36 37 37 38 39 40 40 40 40 40 39 39 38 38 36 35 33 33 34
43 42 41 41 41 40 40 39 39 39 39 40 41 41 41 42 42 42 41 40 39 38 38 37 36 36 36 36 36 37 36 37 37 37 38 38 39 40 40 41 41 40 40 39 38 37 36 35 33 31 29 29
40 40 39 39 40 40 40 40 40 40 40 41 41 42 43 43 43 43 42 42 41 40 39 38 38 37 37 37 37 37 37 37 37 38 38 38 39 40 40 41 41 40 39 38 36 35 34 33 32 30 28 27
40 40 39 39 39 39 39 40 40 40 41 42 43 43 44 45 45 44 44 43 41 40 40 39 39 38 38 37 37 37 37 37 38 38 38 38 39 39 39 39 39 39 38 37 35 33 32 32 32 31 30 29
Wind_Direction
208 209 211 212 212 212 213 216 221 227 231 235 239 244 247 251 253 255 257 260 263 266 270 273 276 279 282 284 285 285 285 287 287 286 285 284 281 278 274 270 268 267 269 273 280 288 295 300 304 309 313 317
203 206 210 210 211 213 215 220 226 231 235 237 240 243 246 249 252 256 260 264 268 270 272 274 275 278 281 284 284 285 286 286 284 283 282 279 277 275 272 269 268 269 270 275 281 289 294 297 300 304 309 315
206 209 211 211 213 216 220 224 228 231 234 236 237 240 244 249 255 259 263 265 267 270 272 274 276 279 282 283 284 284 285 284 283 283 281 278 275 272 270 268 268 269 271 276 283 287 289 290 294 299 305 310
211 214 215 215 217 221 225 226 228 230 232 234 236 239 244 252 258 263 266 265 266 268 270 272 274 278 281 282 282 282 283 283 284 283 282 279 275 271 268 266 266 268 271 276 280 281 282 284 288 293 298 302
214 217 219 219 220 223 226 228 230 233 236 239 241 244 249 255 259 265 268 267 268 269 270 272 274 277 279 280 281 282 282 282 282 281 279 276 272 270 267 266 266 269 273 277 279 280 281 283 286 290 294 296
217 217 219 220 221 224 227 231 235 238 242 245 247 251 254 255 259 265 268 267 268 269 272 274 276 277 278 280 280 280 280 279 279 276 274 273 272 271 270 269 270 273 277 281 283 283 283 284 285 287 289 291
218 218 219 222 224 227 230 235 239 243 248 251 255 256 254 254 260 265 266 266 267 270 274 276 277 278 278 278 277 276 274 272 273 272 271 272 273 272 272 272 274 277 279 282 283 283 282 282 283 283 283 285
220 222 223 225 227 230 234 239 244 249 254 256 256 254 252 256 262 264 264 266 270 272 273 274 275 276 277 275 274 272 271 269 269 270 270 270 270 272 273 274 276 277 278 279 279 280 280 280 280 280 280 280
222 225 228 229 232 235 238 242 246 251 253 253 251 251 254 260 261 262 264 268 271 272 271 270 270 272 274 274 274 274 274 273 272 271 271 269 269 270 272 273 274 275 276 277 278 279 280 280 279 279 279 278
225 227 232 234 237 239 241 244 246 248 247 246 248 252 255 257 259 261 264 266 268 270 272 272 271 271 273 273 273 274 275 274 272 271 270 270 269 269 269 270 272 273 275 275 276 276 277 278 277 277 277 277
229 230 234 236 239 241 242 245 245 243 242 245 249 251 252 253 256 258 260 265 268 271 272 272 272 271 271 271 270 270 270 269 267 266 265 265 265 266 268 270 272 272 273 273 272 272 273 273 274 275 275 275
232 234 236 237 240 242 243 243 242 242 245 248 250 251 251 251 254 256 259 263 267 270 271 271 270 269 269 271 270 269 268 267 266 265 264 264 265 266 268 269 269 269 270 270 270 270 270 271 272 273 274 275
233 232 235 240 243 244 244 242 242 246 250 249 249 249 249 250 253 256 259 261 264 269 271 270 269 268 269 269 270 270 269 270 270 270 269 268 268 267 268 268 268 268 268 269 270 270 271 272 273 273 274 275
226 227 233 242 246 247 247 244 244 248 251 249 246 246 248 249 251 255 260 263 265 267 268 268 267 267 268 268 269 269 269 270 271 272 272 271 270 269 269 269 270 270 271 272 273 273 274 274 274 274 273 273
225 229 236 244 247 247 247 247 247 248 250 249 246 245 248 251 254 258 262 265 265 265 267 269 269 268 268 268 267 267 267 267 268 269 270 270 270 270 271 271 272 273 274 275 275 275 275 275 274 273 272 270
229 233 238 244 246 246 247 249 250 249 248 248 247 247 250 254 257 261 263 263 264 265 267 269 270 269 268 268 267 267 266 266 265 266 266 267 268 269 270 272 274 275 276 276 276 277 277 276 275 273 271 269
228 236 242 245 246 246 247 249 250 249 249 247 248 250 252 253 256 260 260 261 263 265 267 268 269 268 268 268 268 268 267 266 265 265 266 267 268 269 271 272 274 275 276 277 277 277 276 276 275 274 272 271
232 240 247 249 248 247 248 250 249 249 248 248 250 251 252 253 255 258 259 261 264 266 268 269 269 268 267 266 266 266 265 266 266 266 268 269 270 272 273 275 275 276 277 277 278 277 277 276 275 275 274 273
239 242 244 246 248 247 249 251 250 249 248 249 251 253 255 257 259 261 262 264 266 269 270 270 270 268 267 265 265 265 265 266 267 268 269 270 272 273 274 276 277 278 279 279 280 280 280 279 279 278 276 274
239 240 239 242 246 248 250 252 251 249 248 250 252 255 258 260 264 267 268 270 271 272 271 270 269 268 267 267 267 267 268 269 269 269 270 272 273 275 276 277 279 280 281 282 283 283 283 282 281 280 278 277
238 238 238 240 245 249 250 250 250 251 251 252 253 256 260 262 266 270 271 272 272 271 269 267 266 266 267 268 269 269 270 270 271 272 273 275 276 278 279 280 282 283 284 285 286 285 285 284 283 281 280 279
240 239 239 241 244 248 250 250 250 253 255 256 258 260 262 264 267 270 271 272 272 271 268 265 263 263 264 266 268 269 270 272 273 275 276 277 278 280 281 283 284 286 287 288 287 287 286 286 285 284 282 281
238 239 240 243 244 246 248 249 250 253 256 259 262 264 265 266 269 271 272 273 274 272 268 264 262 262 262 264 265 267 269 271 274 276 277 278 280 281 282 283 284 285 286 287 287 287 286 286 285 285 284 281
238 240 242 244 245 246 247 249 251 253 256 259 262 263 265 266 268 270 272 273 274 272 268 265 262 262 262 262 264 266 269 271 273 276 278 279 280 281 281 282 282 283 284 285 286 286 285 285 285 285 284 282
239 243 245 246 247 248 249 250 252 254 256 259 261 263 265 265 265 266 269 272 272 269 266 263 262 262 262 263 264 267 270 273 274 276 278 279 279 280 280 281 281 282 283 284 285 285 285 285 285 285 284 282
241 243 246 247 247 248 249 251 252 254 256 259 261 264 266 266 265 266 269 271 270 267 264 263 263 262 262 263 266 269 271 273 275 276 277 278 279 279 280 281 282 283 284 284 285 285 285 285 286 285 284 282
241 243 245 246 247 248 251 253 255 256 257 260 262 264 266 267 268 269 270 271 270 267 266 265 264 263 263 264 267 270 272 274 276 277 278 279 279 280 281 281 282 283 283 284 284 284 284 284 284 284 284 283
240 242 244 245 247 249 252 255 256 257 259 260 262 264 265 266 267 268 268 269 268 267 266 266 266 265 265 266 268 271 273 275 276 277 278 278 278 279 280 280 281 282 282 283 284 283 283 282 281 280 281 282
238 240 241 243 246 248 251 254 256 257 258 260 261 263 263 264 265 265 265 266 266 266 267 266 265 265 266 268 269 271 273 274 275 276 277 277 278 278 279 280 281 281 282 283 283 282 281 281 279 277 276 276
242 244 245 246 247 249 251 254 256 257 258 259 260 261 262 262 262 262 263 263 264 265 265 265 265 266 267 268 269 271 272 273 274 275 276 277 278 279 279 280 281 282 282 282 281 280 279 278 277 276 273 271
248 250 251 252 251 251 252 254 256 257 258 258 258 259 260 260 260 260 261 262 262 263 264 265 266 267 269 270 270 271 272 273 274 275 276 276 277 278 279 280 281 282 282 280 279 277 276 275 275 274 272 270